Location: Hurstbourne Priors
(51.2000°N, 1.3667°W)
Time: 22:10:54
(UTC+00:00)

Altair - Pass Details

Date: 13 April 2021
Orbit: 1501 x 1683 km, 47.2° (Epoch: 13 May)

Event Time Altitude Azimuth Distance (km) Brightness Sun altitude
Rises 09:56:16 0° 256° (WSW) 4,791 9.9 40.3°
Reaches altitude 10° 09:59:25 10° 255° (WSW) 3,782 9.4 40.6°
Maximum altitude 10:08:52 70° 174° (S) 1,623 8.8 41.6°
Drops below altitude 10° 10:18:01 10° 94° (E) 3,668 10.1 42.5°
Sets 10:21:01 0° 92° (E) 4,640 10.4 42.8°
